Time,TemperatureF,DewpointF,PressureIn,WindDirection,WindDirectionDegrees,WindSpeedMPH,WindSpeedGustMPH,Humidity,HourlyPrecipIn,Conditions,Clouds,dailyrainin,SoftwareType,DateUTC
2013-04-16 00:00:00,62.9,62.9,30.06,ESE,109,0.0,0.0,100,0.00,,---,0.00,VWS V14.01,2013-04-16 04:00:00,
2013-04-16 00:10:00,62.6,62.6,30.06,ESE,109,0.0,0.0,100,0.00,,---,0.00,VWS V14.01,2013-04-16 04:10:00,
2013-04-16 00:20:00,62.4,62.4,30.06,ESE,109,0.0,0.0,100,0.00,,---,0.00,VWS V14.01,2013-04-16 04:20:00,
2013-04-16 00:30:00,62.1,62.1,30.06,ESE,109,0.0,0.0,100,0.00,,---,0.00,VWS V14.01,2013-04-16 04:30:00,
2013-04-16 00:40:00,61.8,61.8,30.06,ESE,107,0.0,0.0,100,0.00,,---,0.00,VWS V14.01,2013-04-16 04:40:00,
2013-04-16 00:50:00,61.5,61.5,30.06,ESE,102,0.0,0.0,100,0.00,,---,0.00,VWS V14.01,2013-04-16 04:50:00,
2013-04-16 01:00:00,61.3,61.3,30.07,ESE,102,0.0,0.0,100,0.00,,---,0.00,VWS V14.01,2013-04-16 05:00:00,
2013-04-16 01:10:00,61.0,61.0,30.07,ESE,102,0.0,0.0,100,0.00,,---,0.00,VWS V14.01,2013-04-16 05:10:00,
2013-04-16 01:20:00,60.9,60.9,30.07,ESE,102,0.0,0.0,100,0.00,,---,0.00,VWS V14.01,2013-04-16 05:20:00,
2013-04-16 01:30:00,60.7,60.7,30.07,ESE,102,0.0,0.0,100,0.00,,---,0.00,VWS V14.01,2013-04-16 05:30:00,
2013-04-16 01:40:00,60.4,60.4,30.07,ESE,102,0.0,0.0,100,0.00,,---,0.00,VWS V14.01,2013-04-16 05:40:00,
2013-04-16 01:50:00,60.2,60.2,30.07,ESE,102,0.0,0.0,100,0.00,,---,0.00,VWS V14.01,2013-04-16 05:50:00,
2013-04-16 02:00:00,60.1,60.1,30.07,ESE,102,0.0,0.0,100,0.00,,---,0.00,VWS V14.01,2013-04-16 06:00:00,
2013-04-16 02:10:00,59.9,59.9,30.07,ESE,102,0.0,0.0,100,0.00,,---,0.00,VWS V14.01,2013-04-16 06:10:00,
2013-04-16 02:20:00,59.6,59.6,30.07,ESE,102,0.0,0.0,100,0.00,,---,0.00,VWS V14.01,2013-04-16 06:20:00,
2013-04-16 02:30:00,59.5,59.5,30.07,ESE,102,0.0,0.0,100,0.00,,---,0.00,VWS V14.01,2013-04-16 06:30:00,
2013-04-16 02:40:00,59.2,59.2,30.07,ESE,102,0.0,0.0,100,0.00,,---,0.00,VWS V14.01,2013-04-16 06:40:00,
2013-04-16 02:50:00,59.0,59.0,30.07,ESE,102,0.0,0.0,100,0.00,,---,0.00,VWS V14.01,2013-04-16 06:50:00,
2013-04-16 03:00:00,58.7,58.7,30.07,ESE,102,0.0,0.0,100,0.00,,---,0.00,VWS V14.01,2013-04-16 07:00:00,
2013-04-16 03:10:00,58.6,58.6,30.07,ESE,102,0.0,0.0,100,0.00,,---,0.00,VWS V14.01,2013-04-16 07:10:00,
2013-04-16 03:20:00,58.3,58.3,30.07,ESE,102,0.0,0.0,100,0.00,,---,0.00,VWS V14.01,2013-04-16 07:20:00,
2013-04-16 03:30:00,58.1,58.1,30.07,ESE,102,0.0,0.0,100,0.00,,---,0.00,VWS V14.01,2013-04-16 07:30:00,
2013-04-16 03:40:00,58.0,58.0,30.07,ESE,102,0.0,0.0,100,0.00,,---,0.00,VWS V14.01,2013-04-16 07:40:00,
2013-04-16 03:50:00,57.8,57.8,30.07,ESE,102,0.0,0.0,100,0.00,,---,0.00,VWS V14.01,2013-04-16 07:50:00,
2013-04-16 04:00:00,57.5,57.5,30.07,ESE,102,0.0,0.0,100,0.00,,---,0.00,VWS V14.01,2013-04-16 08:00:00,
2013-04-16 04:10:00,57.5,57.5,30.07,ESE,102,0.0,0.0,100,0.00,,---,0.00,VWS V14.01,2013-04-16 08:10:00,
2013-04-16 04:20:00,57.3,57.3,30.07,ESE,102,0.0,0.0,100,0.00,,---,0.00,VWS V14.01,2013-04-16 08:20:00,
2013-04-16 04:30:00,57.2,57.2,30.07,ESE,102,0.0,0.0,100,0.00,,---,0.00,VWS V14.01,2013-04-16 08:30:00,
2013-04-16 04:40:00,57.0,57.0,30.07,ESE,102,0.0,0.0,100,0.00,,---,0.00,VWS V14.01,2013-04-16 08:40:00,
2013-04-16 04:50:00,56.9,56.9,30.07,ESE,102,0.0,0.0,100,0.00,,---,0.00,VWS V14.01,2013-04-16 08:50:00,
2013-04-16 05:00:00,56.9,56.9,30.07,ESE,102,0.0,0.0,100,0.00,,---,0.00,VWS V14.01,2013-04-16 09:00:00,
2013-04-16 05:10:00,57.0,57.0,30.07,ESE,102,0.0,0.0,100,0.00,,---,0.00,VWS V14.01,2013-04-16 09:10:00,
2013-04-16 05:20:00,56.9,56.9,30.07,ESE,102,0.0,0.0,100,0.00,,---,0.00,VWS V14.01,2013-04-16 09:20:00,
2013-04-16 05:30:00,56.9,56.9,30.07,ESE,102,0.0,0.0,100,0.00,,---,0.00,VWS V14.01,2013-04-16 09:30:00,
2013-04-16 05:40:00,56.7,56.7,30.07,ESE,102,0.0,0.0,100,0.00,,---,0.00,VWS V14.01,2013-04-16 09:40:00,
2013-04-16 05:50:00,56.3,56.3,30.07,ESE,102,0.0,0.0,100,0.00,,---,0.00,VWS V14.01,2013-04-16 09:50:00,
2013-04-16 06:00:00,56.0,56.0,30.07,ESE,102,0.0,0.0,100,0.00,,---,0.00,VWS V14.01,2013-04-16 10:00:00,
2013-04-16 06:10:00,56.0,56.0,30.07,ESE,102,0.0,0.0,100,0.00,,---,0.00,VWS V14.01,2013-04-16 10:10:00,
2013-04-16 06:20:00,56.0,56.0,30.08,ESE,102,0.0,0.0,100,0.00,,---,0.00,VWS V14.01,2013-04-16 10:20:00,
2013-04-16 06:30:00,56.0,56.0,30.08,ESE,102,0.0,0.0,100,0.00,,---,0.00,VWS V14.01,2013-04-16 10:30:00,
2013-04-16 06:40:00,56.3,56.3,30.08,ESE,102,0.0,0.0,100,0.00,,---,0.00,VWS V14.01,2013-04-16 10:40:00,
2013-04-16 06:50:00,56.5,56.5,30.09,ESE,102,0.0,0.0,100,0.00,,---,0.00,VWS V14.01,2013-04-16 10:50:00,
2013-04-16 07:00:00,56.7,56.7,30.10,ESE,102,0.0,0.0,100,0.00,,---,0.00,VWS V14.01,2013-04-16 11:00:00,
2013-04-16 07:10:00,56.9,56.9,30.10,ESE,102,0.0,0.0,100,0.00,,---,0.00,VWS V14.01,2013-04-16 11:10:00,
2013-04-16 07:20:00,57.0,57.0,30.10,ESE,102,0.0,0.0,100,0.00,,---,0.00,VWS V14.01,2013-04-16 11:20:00,
2013-04-16 07:30:00,57.0,57.0,30.11,ESE,102,0.0,0.0,100,0.00,,---,0.00,VWS V14.01,2013-04-16 11:30:00,
2013-04-16 07:40:00,57.2,57.2,30.11,ESE,102,0.0,0.0,100,0.00,,---,0.00,VWS V14.01,2013-04-16 11:40:00,
2013-04-16 07:50:00,57.3,57.3,30.12,ESE,102,0.0,0.0,100,0.00,,---,0.00,VWS V14.01,2013-04-16 11:50:00,
2013-04-16 08:00:00,57.2,57.2,30.12,ESE,102,0.0,0.0,100,0.00,,---,0.00,VWS V14.01,2013-04-16 12:00:00,
2013-04-16 08:10:00,57.5,57.5,30.12,ESE,102,0.0,0.0,100,0.00,,---,0.00,VWS V14.01,2013-04-16 12:10:00,
2013-04-16 08:20:00,57.6,57.6,30.12,ESE,102,0.0,0.0,100,0.00,,---,0.00,VWS V14.01,2013-04-16 12:20:00,
2013-04-16 08:30:00,57.8,57.8,30.13,ESE,102,0.0,0.0,100,0.00,,---,0.00,VWS V14.01,2013-04-16 12:30:00,
2013-04-16 08:40:00,58.1,58.1,30.13,ESE,102,0.0,0.0,100,0.00,,---,0.00,VWS V14.01,2013-04-16 12:40:00,
2013-04-16 08:50:00,58.3,58.3,30.13,ESE,102,0.0,0.0,100,0.00,,---,0.00,VWS V14.01,2013-04-16 12:50:00,
2013-04-16 09:00:00,58.4,58.4,30.13,ESE,104,0.0,0.0,100,0.00,,---,0.00,VWS V14.01,2013-04-16 13:00:00,
2013-04-16 09:10:00,58.7,58.7,30.13,ESE,104,0.0,0.0,100,0.00,,---,0.00,VWS V14.01,2013-04-16 13:10:00,
2013-04-16 09:20:00,58.6,58.6,30.13,ESE,104,0.0,0.0,100,0.00,,---,0.00,VWS V14.01,2013-04-16 13:20:00,
2013-04-16 09:30:00,58.6,58.6,30.14,ESE,104,0.0,0.0,100,0.00,,---,0.00,VWS V14.01,2013-04-16 13:30:00,
2013-04-16 09:40:00,58.7,58.7,30.14,ESE,104,0.0,0.0,100,0.00,,---,0.00,VWS V14.01,2013-04-16 13:40:00,
2013-04-16 09:50:00,58.9,58.9,30.15,ESE,104,0.0,0.0,100,0.00,,---,0.00,VWS V14.01,2013-04-16 13:50:00,
2013-04-16 10:00:00,59.0,59.0,30.15,ESE,104,0.0,0.0,100,0.00,,---,0.00,VWS V14.01,2013-04-16 14:00:00,
2013-04-16 10:10:00,59.2,59.2,30.15,ESE,104,0.0,0.0,100,0.00,,---,0.00,VWS V14.01,2013-04-16 14:10:00,
2013-04-16 10:20:00,59.3,59.3,30.16,ESE,104,0.0,0.0,100,0.00,,---,0.00,VWS V14.01,2013-04-16 14:20:00,
2013-04-16 10:30:00,59.5,59.5,30.16,ESE,104,0.0,0.0,100,0.00,,---,0.00,VWS V14.01,2013-04-16 14:30:00,
2013-04-16 10:40:00,59.8,59.8,30.16,ESE,104,0.0,0.0,100,0.00,,---,0.00,VWS V14.01,2013-04-16 14:40:00,
2013-04-16 10:50:00,60.1,60.1,30.16,ESE,104,0.0,0.0,100,0.00,,---,0.00,VWS V14.01,2013-04-16 14:50:00,
2013-04-16 11:00:00,60.7,60.7,30.16,ESE,104,0.0,0.0,100,0.00,,---,0.00,VWS V14.01,2013-04-16 15:00:00,
2013-04-16 11:10:00,61.3,61.3,30.16,ESE,104,0.0,0.0,100,0.00,,---,0.00,VWS V14.01,2013-04-16 15:10:00,
2013-04-16 11:20:00,62.1,62.1,30.16,ESE,104,0.0,0.0,100,0.00,,---,0.00,VWS V14.01,2013-04-16 15:20:00,
2013-04-16 11:30:00,62.1,62.1,30.16,ESE,103,0.0,0.0,100,0.00,,---,0.00,VWS V14.01,2013-04-16 15:30:00,
2013-04-16 11:40:00,62.7,62.7,30.16,ESE,103,0.0,0.0,100,0.00,,---,0.00,VWS V14.01,2013-04-16 15:40:00,
2013-04-16 11:50:00,63.1,63.1,30.16,ESE,106,0.0,0.0,100,0.00,,---,0.00,VWS V14.01,2013-04-16 15:50:00,
2013-04-16 12:00:00,63.5,63.2,30.16,ESE,106,0.0,0.0,99,0.00,,---,0.00,VWS V14.01,2013-04-16 16:00:00,
2013-04-16 12:10:00,63.7,63.1,30.16,ESE,104,0.0,0.0,98,0.00,,---,0.00,VWS V14.01,2013-04-16 16:10:00,
2013-04-16 12:20:00,64.0,63.4,30.17,ESE,107,0.0,0.0,98,0.00,,---,0.00,VWS V14.01,2013-04-16 16:20:00,
2013-04-16 12:30:00,64.2,63.3,30.16,SSW,199,0.0,1.0,97,0.00,,---,0.00,VWS V14.01,2013-04-16 16:30:00,
2013-04-16 12:40:00,65.2,63.4,30.16,ESE,114,0.0,0.0,94,0.00,,---,0.00,VWS V14.01,2013-04-16 16:40:00,
2013-04-16 12:50:00,65.2,63.7,30.16,ESE,103,0.0,1.0,95,0.00,,---,0.00,VWS V14.01,2013-04-16 16:50:00,
2013-04-16 13:00:00,66.4,63.7,30.15,ESE,103,0.0,0.0,91,0.00,,---,0.00,VWS V14.01,2013-04-16 17:00:00,
2013-04-16 13:10:00,68.9,64.9,30.15,NNE,24,0.0,3.0,87,0.00,,---,0.00,VWS V14.01,2013-04-16 17:10:00,
2013-04-16 13:20:00,69.3,64.9,30.15,NNE,24,0.0,1.0,86,0.00,,---,0.00,VWS V14.01,2013-04-16 17:20:00,
2013-04-16 13:30:00,68.4,64.4,30.14,East,92,0.0,6.0,87,0.00,,---,0.00,VWS V14.01,2013-04-16 17:30:00,
2013-04-16 13:40:00,70.3,65.2,30.14,SW,236,0.0,1.0,84,0.00,,---,0.00,VWS V14.01,2013-04-16 17:40:00,
2013-04-16 13:50:00,70.9,65.5,30.14,ESE,110,0.0,0.0,83,0.00,,---,0.00,VWS V14.01,2013-04-16 17:50:00,
2013-04-16 14:00:00,72.3,65.4,30.13,SSW,210,0.0,0.0,79,0.00,,---,0.00,VWS V14.01,2013-04-16 18:00:00,
2013-04-16 14:10:00,71.8,64.6,30.13,ENE,62,0.0,3.0,78,0.00,,---,0.00,VWS V14.01,2013-04-16 18:10:00,
2013-04-16 14:20:00,72.3,64.7,30.12,ENE,62,0.0,0.0,77,0.00,,---,0.00,VWS V14.01,2013-04-16 18:20:00,
2013-04-16 14:30:00,71.6,65.1,30.12,East,83,0.0,2.0,80,0.00,,---,0.00,VWS V14.01,2013-04-16 18:30:00,
2013-04-16 14:40:00,71.8,65.3,30.12,ENE,65,0.0,1.0,80,0.00,,---,0.00,VWS V14.01,2013-04-16 18:40:00,
2013-04-16 14:50:00,73.0,65.0,30.12,NE,40,0.0,0.0,76,0.00,,---,0.00,VWS V14.01,2013-04-16 18:50:00,
2013-04-16 15:00:00,74.0,65.2,30.11,NE,48,0.0,2.0,74,0.00,,---,0.00,VWS V14.01,2013-04-16 19:00:00,
2013-04-16 15:10:00,74.9,66.1,30.11,NE,44,0.0,2.0,74,0.00,,---,0.00,VWS V14.01,2013-04-16 19:10:00,
2013-04-16 15:20:00,76.5,66.4,30.10,NE,44,0.0,0.0,71,0.00,,---,0.00,VWS V14.01,2013-04-16 19:20:00,
2013-04-16 15:30:00,77.0,66.5,30.09,NE,45,0.0,2.0,70,0.00,,---,0.00,VWS V14.01,2013-04-16 19:30:00,
2013-04-16 15:40:00,76.8,65.9,30.09,ESE,107,0.0,2.0,69,0.00,,---,0.00,VWS V14.01,2013-04-16 19:40:00,
2013-04-16 15:50:00,76.3,65.8,30.08,ESE,104,0.0,0.0,70,0.00,,---,0.00,VWS V14.01,2013-04-16 19:50:00,
2013-04-16 16:00:00,75.8,65.7,30.07,East,92,0.0,0.0,71,0.00,,---,0.00,VWS V14.01,2013-04-16 20:00:00,
2013-04-16 16:10:00,76.0,65.5,30.07,NE,51,0.0,1.0,70,0.00,,---,0.00,VWS V14.01,2013-04-16 20:10:00,
2013-04-16 16:20:00,75.6,64.7,30.07,East,82,0.0,2.0,69,0.00,,---,0.00,VWS V14.01,2013-04-16 20:20:00,
2013-04-16 16:30:00,76.5,64.3,30.06,East,89,0.0,3.0,66,0.00,,---,0.00,VWS V14.01,2013-04-16 20:30:00,
2013-04-16 16:40:00,76.7,64.1,30.06,ENE,68,0.0,1.0,65,0.00,,---,0.00,VWS V14.01,2013-04-16 20:40:00,
2013-04-16 16:50:00,76.7,62.7,30.06,ENE,65,0.0,1.0,62,0.00,,---,0.00,VWS V14.01,2013-04-16 20:50:00,
2013-04-16 17:00:00,76.7,62.7,30.06,ENE,73,0.0,1.0,62,0.00,,---,0.00,VWS V14.01,2013-04-16 21:00:00,
2013-04-16 17:10:00,76.0,63.4,30.06,NE,55,0.0,3.0,65,0.00,,---,0.00,VWS V14.01,2013-04-16 21:10:00,
2013-04-16 17:20:00,75.6,63.9,30.06,SSE,148,0.0,0.0,67,0.00,,---,0.00,VWS V14.01,2013-04-16 21:20:00,
2013-04-16 17:30:00,75.1,63.0,30.06,East,89,0.0,0.0,66,0.00,,---,0.00,VWS V14.01,2013-04-16 21:30:00,
2013-04-16 17:40:00,74.6,63.3,30.06,East,90,0.0,1.0,68,0.00,,---,0.00,VWS V14.01,2013-04-16 21:40:00,
2013-04-16 17:50:00,74.9,62.8,30.06,East,90,0.0,0.0,66,0.00,,---,0.00,VWS V14.01,2013-04-16 21:50:00,
2013-04-16 18:00:00,75.1,64.2,30.06,East,90,0.0,0.0,69,0.00,,---,0.00,VWS V14.01,2013-04-16 22:00:00,
2013-04-16 18:10:00,74.7,63.5,30.06,East,93,0.0,0.0,68,0.00,,---,0.00,VWS V14.01,2013-04-16 22:10:00,
2013-04-16 18:20:00,74.7,63.9,30.06,East,97,0.0,0.0,69,0.00,,---,0.00,VWS V14.01,2013-04-16 22:20:00,
2013-04-16 18:30:00,74.6,63.8,30.05,East,85,0.0,0.0,69,0.00,,---,0.00,VWS V14.01,2013-04-16 22:30:00,
2013-04-16 18:40:00,74.2,63.4,30.05,East,85,0.0,0.0,69,0.00,,---,0.00,VWS V14.01,2013-04-16 22:40:00,
2013-04-16 18:50:00,73.9,63.1,30.05,East,85,0.0,0.0,69,0.00,,---,0.00,VWS V14.01,2013-04-16 22:50:00,
2013-04-16 19:00:00,73.7,63.3,30.05,East,85,0.0,0.0,70,0.00,,---,0.00,VWS V14.01,2013-04-16 23:00:00,
2013-04-16 19:10:00,73.5,63.5,30.05,East,85,0.0,0.0,71,0.00,,---,0.00,VWS V14.01,2013-04-16 23:10:00,
2013-04-16 19:20:00,73.3,64.1,30.05,East,85,0.0,0.0,73,0.00,,---,0.00,VWS V14.01,2013-04-16 23:20:00,
2013-04-16 19:30:00,73.0,64.2,30.05,East,85,0.0,0.0,74,0.00,,---,0.00,VWS V14.01,2013-04-16 23:30:00,
2013-04-16 19:40:00,72.5,64.1,30.05,East,85,0.0,0.0,75,0.00,,---,0.00,VWS V14.01,2013-04-16 23:40:00,
2013-04-16 19:50:00,71.8,64.2,30.05,East,85,0.0,0.0,77,0.00,,---,0.00,VWS V14.01,2013-04-16 23:50:00,
2013-04-16 20:00:00,70.9,63.7,30.05,East,85,0.0,0.0,78,0.00,,---,0.00,VWS V14.01,2013-04-17 00:00:00,
2013-04-16 20:10:00,70.4,63.2,30.05,East,85,0.0,0.0,78,0.00,,---,0.00,VWS V14.01,2013-04-17 00:10:00,
2013-04-16 20:20:00,69.8,63.4,30.05,East,85,0.0,0.0,80,0.00,,---,0.00,VWS V14.01,2013-04-17 00:20:00,
2013-04-16 20:30:00,69.3,62.9,30.05,East,85,0.0,0.0,80,0.00,,---,0.00,VWS V14.01,2013-04-17 00:30:00,
2013-04-16 20:40:00,68.9,62.8,30.05,East,85,0.0,0.0,81,0.00,,---,0.00,VWS V14.01,2013-04-17 00:40:00,
2013-04-16 20:50:00,68.6,62.9,30.05,East,85,0.0,0.0,82,0.00,,---,0.00,VWS V14.01,2013-04-17 00:50:00,
2013-04-16 21:00:00,68.3,62.9,30.06,East,85,0.0,0.0,83,0.00,,---,0.00,VWS V14.01,2013-04-17 01:00:00,
2013-04-16 21:10:00,67.8,62.8,30.06,East,85,0.0,0.0,84,0.00,,---,0.00,VWS V14.01,2013-04-17 01:10:00,
2013-04-16 21:20:00,67.4,62.7,30.07,East,85,0.0,0.0,85,0.00,,---,0.00,VWS V14.01,2013-04-17 01:20:00,
2013-04-16 21:30:00,67.1,62.8,30.07,East,85,0.0,0.0,86,0.00,,---,0.00,VWS V14.01,2013-04-17 01:30:00,
2013-04-16 21:40:00,66.9,62.6,30.07,East,85,0.0,0.0,86,0.00,,---,0.00,VWS V14.01,2013-04-17 01:40:00,
2013-04-16 21:50:00,66.6,62.6,30.07,East,85,0.0,0.0,87,0.00,,---,0.00,VWS V14.01,2013-04-17 01:50:00,
2013-04-16 22:00:00,66.3,62.6,30.08,East,85,0.0,0.0,88,0.00,,---,0.00,VWS V14.01,2013-04-17 02:00:00,
2013-04-16 22:10:00,66.0,62.7,30.08,East,85,0.0,0.0,89,0.00,,---,0.00,VWS V14.01,2013-04-17 02:10:00,
2013-04-16 22:20:00,65.6,62.6,30.08,East,85,0.0,0.0,90,0.00,,---,0.00,VWS V14.01,2013-04-17 02:20:00,
2013-04-16 22:30:00,65.3,62.6,30.08,East,85,0.0,0.0,91,0.00,,---,0.00,VWS V14.01,2013-04-17 02:30:00,
2013-04-16 22:40:00,64.7,62.6,30.08,East,85,0.0,0.0,93,0.00,,---,0.00,VWS V14.01,2013-04-17 02:40:00,
2013-04-16 22:50:00,64.3,62.2,30.08,East,85,0.0,0.0,93,0.00,,---,0.00,VWS V14.01,2013-04-17 02:50:00,
2013-04-16 23:00:00,64.0,61.9,30.08,East,85,0.0,0.0,93,0.00,,---,0.00,VWS V14.01,2013-04-17 03:00:00,
2013-04-16 23:10:00,63.7,62.2,30.08,East,85,0.0,0.0,95,0.00,,---,0.00,VWS V14.01,2013-04-17 03:10:00,
2013-04-16 23:20:00,63.4,62.0,30.08,East,85,0.0,0.0,95,0.00,,---,0.00,VWS V14.01,2013-04-17 03:20:00,
2013-04-16 23:30:00,63.1,62.2,30.09,East,85,0.0,0.0,97,0.00,,---,0.00,VWS V14.01,2013-04-17 03:30:00,
2013-04-16 23:40:00,62.9,62.0,30.09,East,85,0.0,0.0,97,0.00,,---,0.00,VWS V14.01,2013-04-17 03:40:00,
2013-04-16 23:50:00,62.6,62.0,30.09,East,85,0.0,0.0,98,0.00,,---,0.00,VWS V14.01,2013-04-17 03:50:00,